Location: Unspecified
(40.7945°N, 0.0000°E)
Time: 08:10:41
(UTC+00:00)

deb Explorer IX - Pass Details

Date: 24 January 2021
Orbit: 537 x 1103 km, 38.8° (Epoch: 23 February)

Event Time Altitude Azimuth Distance (km) Brightness Sun altitude
Rises 18:03:50 0° 246° (WSW) 3,731 ? -10.8°
Reaches altitude 10° 18:06:43 10° 243° (WSW) 2,708 ? -11.3°
Maximum altitude 18:13:04 58° 166° (SSE) 1,004 ? -12.4°
Enters shadow 18:17:15 18° 91° (E) 1,892 ? -13.2°
